[[{"header":{"parameterUnit":"m.s-1","parameterCategory":1,"la1":30.2992,"la2":30.254,"lo1":-89.0895,"lo2":-89.0443,"dy":0.0025,"dx":0.0025,"nx":19,"ny":19,"refTime":"2026-05-10T21:00:00:Z","depth":0,"parameterNumber":2,"parameterNumberName":"U-component_of_WINDS"},"data":[0,0,0,-2.0538,-2.0538,-2.0554,-2.0554,-2.0598,-2.0599,0,0,0,0,0,0,0,0,0,0,0,-2.0545,-2.0545,-2.0537,-2.0538,-2.0554,-2.0554,-2.0598,-2.0599,0,0,0,0,0,0,0,0,0,0,0,-2.0544,-2.0545,-2.0546,-2.0538,-2.0554,-2.0554,-2.0598,-2.0578,0,0,0,0,0,0,0,0,0,0,-2.0558,-2.0576,-2.0545,-2.0546,-2.0538,-2.0554,-2.0554,-2.0576,-2.0579,-2.06,0,-2.062,0,-2.061,-2.0603,-2.0603,0,0,0,-2.0529,-2.0574,-2.0568,-2.0546,-2.0539,-2.0554,-2.0544,-2.0578,-2.0581,-2.0604,-2.0621,-2.0622,-2.0611,-2.0603,-2.0604,-2.0753,-2.0754,0,0,-2.0529,-2.0554,-2.0566,-2.057,-2.0567,-2.0544,-2.0545,-2.0579,-2.06,-2.0621,-2.0623,-2.0612,-2.0604,-2.0604,-2.0752,-2.0753,0,0,0,-2.0532,-2.0554,-2.0546,-2.0569,-2.057,-2.0545,-2.0546,-2.0598,-2.0594,-2.0623,-2.0612,-2.0604,-2.0605,-2.075,-2.0752,-2.0831,0,0,0,-2.0531,-2.0556,-2.0546,-2.0562,-2.057,-2.0584,-2.0565,-2.0591,-2.0594,-2.0612,-2.0604,-2.0605,-2.0749,-2.0751,-2.0827,-2.0864,0,0,0,-2.054,-2.0557,-2.0563,-2.0564,-2.0571,-2.0583,-2.058,-2.0591,-2.0588,-2.0603,-2.0606,-2.0748,-2.0751,-2.0822,-2.0857,-2.0912,0,0,0,-2.0557,-2.0633,-2.0565,-2.0646,-2.0571,-2.0632,-2.0579,-2.0623,-2.0645,-2.0604,-2.0749,-2.0752,-2.0821,-2.0853,-2.0907,-2.0962,-2.0987,0,0,-2.0667,-2.0647,-2.0693,-2.0633,-2.0712,-2.0627,-2.0719,-2.0714,-2.0693,-2.0735,-2.0738,-2.0828,-2.0857,-2.0911,-2.1121,-2.1141,0,0,0,-2.0737,-2.077,-2.0786,-2.0808,-2.0807,-2.081,-2.079,-2.0789,-2.0824,-2.0719,-2.0862,-2.0878,-2.0909,-2.0934,-2.0951,-2.0977,-2.0765,-2.0764,-2.0764,-2.0928,-2.0897,-2.0973,-2.0945,-2.0968,-2.0948,-2.0964,-2.096,-2.0921,-2.0957,-2.0968,-2.1099,-2.1129,-2.1142,-2.1169,-2.0995,-2.0995,-2.0995,-2.0996,-2.1087,-2.113,-2.108,-2.1134,-2.1103,-2.1149,-2.1135,-2.1107,-2.1147,-2.1087,-2.1112,-2.1049,-2.1165,-2.1187,-2.1001,-2.1,-2.1,-2.0999,-2.0999,-2.1209,-2.1224,-2.1223,-2.1254,-2.1283,-2.1253,-2.1295,-2.1264,-2.1236,-2.1262,-2.1272,-2.1271,-2.1266,-2.1269,-2.127,-2.127,-2.127,-2.1271,-2.1271,-2.1335,-2.1331,-2.1368,-2.1377,-2.139,-2.1402,-2.1387,-2.1398,-2.1404,-2.1379,-2.1379,-2.1339,-2.1182,-2.1143,-2.1278,-2.1277,-2.1276,-2.1275,-2.1275,-2.1506,-2.1464,-2.1522,-2.1535,-2.1544,-2.1577,-2.1539,-2.1567,-2.1572,-2.1595,-2.155,-2.1439,-2.1416,-2.1403,-2.137,-2.1556,-2.1556,-2.1556,-2.1556,-2.1609,-2.1595,-2.1649,-2.1672,-2.1691,-2.1664,-2.1735,-2.1726,-2.1709,-2.1712,-2.1681,-2.1636,-2.1624,-2.1608,-2.159,-2.1559,-2.1789,-2.1789,-2.1789,-2.1713,-2.1701,-2.1764,-2.1747,-2.1754,-2.1762,-2.1828,-2.1858,-2.1831,-2.1798,-2.1714,-2.1704,-2.1631,-2.1609,-2.1571,-2.1543,-2.1486,0,0]},{"header":{"parameterUnit":"m.s-1","parameterCategory":1,"la1":30.2992,"la2":30.254,"lo1":-89.0895,"lo2":-89.0443,"dy":0.0025,"dx":0.0025,"nx":19,"ny":19,"refTime":"2026-05-10T21:00:00:Z","depth":0,"parameterNumber":3,"parameterNumberName":"V-component_of_WINDS"},"data":[0,0,0,3.7444,3.7445,3.7515,3.7515,3.7582,3.7583,0,0,0,0,0,0,0,0,0,0,0,3.741,3.741,3.7444,3.7445,3.7515,3.7516,3.7582,3.7583,0,0,0,0,0,0,0,0,0,0,0,3.741,3.741,3.741,3.7445,3.7515,3.7516,3.7582,3.7537,0,0,0,0,0,0,0,0,0,0,3.7473,3.743,3.741,3.741,3.7446,3.7515,3.7516,3.7535,3.754,3.7541,0,3.754,0,3.7563,3.7586,3.7586,0,0,0,3.7454,3.7426,3.7457,3.741,3.7446,3.7515,3.7486,3.7538,3.7543,3.7547,3.7542,3.7545,3.7564,3.7586,3.7587,3.7568,3.7568,0,0,3.745,3.7416,3.7453,3.7459,3.7448,3.7484,3.7488,3.7542,3.7532,3.7542,3.7547,3.7565,3.7587,3.7587,3.7569,3.7568,0,0,0,3.7433,3.7413,3.7443,3.7456,3.747,3.7485,3.7491,3.753,3.7543,3.7547,3.7566,3.7587,3.7587,3.7569,3.7569,3.7511,0,0,0,3.7431,3.7403,3.744,3.742,3.7469,3.7501,3.7477,3.7539,3.7546,3.7565,3.7587,3.7588,3.757,3.7569,3.7514,3.7489,0,0,0,3.741,3.7401,3.7407,3.7418,3.7447,3.7501,3.7517,3.7541,3.7557,3.7586,3.7588,3.757,3.7569,3.7516,3.7493,3.7475,0,0,0,3.7377,3.7353,3.7405,3.7385,3.7446,3.7465,3.7517,3.7533,3.7552,3.7587,3.757,3.7569,3.7517,3.7496,3.7477,3.7453,3.744,0,0,3.7327,3.7346,3.7337,3.7385,3.7387,3.7458,3.7451,3.7499,3.7532,3.7554,3.7554,3.7513,3.7494,3.7475,3.7377,3.7366,0,0,0,3.7309,3.7302,3.731,3.7327,3.7365,3.7395,3.7448,3.7466,3.7487,3.7537,3.7502,3.7492,3.7482,3.7472,3.7463,3.7457,3.7563,3.7563,3.7563,3.7189,3.7234,3.7223,3.7277,3.7292,3.7349,3.7365,3.7399,3.7439,3.743,3.7437,3.7372,3.7359,3.7352,3.7345,3.7428,3.7427,3.7427,3.7427,3.712,3.7118,3.7173,3.7182,3.723,3.7238,3.7291,3.7319,3.7332,3.737,3.7364,3.7401,3.7339,3.7335,3.7423,3.7424,3.7424,3.7425,3.7425,3.7046,3.7053,3.7077,3.7107,3.7124,3.7179,3.719,3.7233,3.7273,3.7268,3.7279,3.7281,3.7287,3.727,3.727,3.727,3.727,3.727,3.7269,3.696,3.6989,3.6994,3.7032,3.7049,3.7077,3.7134,3.7151,3.7181,3.7212,3.7212,3.7253,3.7324,3.7342,3.7266,3.7267,3.7267,3.7267,3.7268,3.6874,3.69,3.6907,3.6924,3.6974,3.6988,3.7044,3.7076,3.7096,3.71,3.7143,3.7189,3.721,3.7218,3.7232,3.7133,3.7133,3.7133,3.7133,3.6811,3.6827,3.6845,3.6869,3.6898,3.6949,3.6955,3.6998,3.7048,3.7063,3.7084,3.7107,3.7112,3.713,3.714,3.7154,3.7037,3.7037,3.7037,3.6761,3.6781,3.6779,3.6829,3.6871,3.6905,3.6912,3.6937,3.6999,3.7034,3.7076,3.708,3.7118,3.7128,3.7163,3.7177,3.7204,0,0]}]]